This demonstration page uses our WeatherBlox Daily Observations layout. Learn more.

Left ArrowRight Arrow

Hourly Observations for September 29, 2016

Temp ( °F °C ) Dew Point ( °F °C ) Humidity (%) Winds ( mph kmh ) Pressure ( in mb ) Visibility ( mi km ) Precip ( " mm )
12:51 am 00:51 Clear 69 20.6 63 17.2 81 81 ESE 6 9 30 1016 10 16.0934 0 0
1:51 am 01:51 Clear 68 20 62 16.7 81 81 SE 5 7 30.01 1016 10 16.0934 0 0
2:51 am 02:51 Mostly Clear 67 19.4 62 16.7 84 84 WNW 9 15 30.01 1016 10 16.0934 0 0
3:51 am 03:51 Clear 68 20 62 16.7 81 81 NNW 3 6 30.01 1016 10 16.0934 0 0
4:51 am 04:51 Clear 65 18.3 62 16.7 90 90 W 5 7 30.02 1017 10 16.0934 0 0
5:51 am 05:51 Mostly Clear 65 18.3 62 16.7 90 90 NNW 5 7 30.04 1017 10 16.0934 0 0
6:51 am 06:51 Partly Cloudy 66 18.9 62 16.7 87 87 Calm 30.06 1018 10 16.0934 0 0
7:51 am 07:51 Mostly Cloudy 68 20 62 16.7 81 81 SE 5 7 30.08 1019 10 16.0934 0 0
8:51 am 08:51 Mostly Cloudy 73 22.8 62 16.7 69 69 SE 6 9 30.08 1019 10 16.0934 0 0
9:51 am 09:51 Mostly Sunny 78 25.6 58 14.4 50 50 SE 6 9 30.09 1019 10 16.0934 0 0
10:51 am 10:51 Partly Cloudy 81 27.2 58 14.4 45 45 ESE 6 9 30.06 1018 10 16.0934 0 0
11:51 am 11:51 Mostly Cloudy 84 28.9 59 15 43 43 VRB 3 6 30.04 1017 10 16.0934 0 0
12:51 pm 12:51 Sunny 86 30 59 15 40 40 VRB 3 6 30 1016 10 16.0934 0 0
1:51 pm 13:51 Sunny 89 31.7 59 15 36 36 W 6 9 29.97 1015 10 16.0934 0 0
2:51 pm 14:51 Mostly Sunny 89 31.7 60 15.6 38 38 W 13 20 29.94 1014 10 16.0934 0 0
3:51 pm 15:51 Sunny 90 32.2 59 15 35 35 W 8 13 29.93 1013 10 16.0934 0 0
4:51 pm 16:51 Sunny 85 29.4 59 15 42 42 WNW 15 24 29.93 1014 10 16.0934 0 0
5:36 pm 17:36 Mostly Cloudy with Light Thunderstorms 77 25 64 17.8 64 64 W 15 24 29.91 1013 10 16.0934 0 0.0254
5:51 pm 17:51 Cloudy with Nearby Thunderstorms 73 22.8 66 18.9 79 79 W 14 22 30 1016 5 8.0467 0.01 0.254
6:11 pm 18:11 Cloudy with Rain 72 22.2 65 18.3 79 79 WSW 14 22 30 1016 6 9.65604 0.02 0.508
6:25 pm 18:25 Cloudy with Nearby Thunderstorms 70 21.1 64 17.8 82 82 W 16 26 29.97 1015 10 16.0934 0.04 1.016
6:51 pm 18:51 Cloudy with Nearby Thunderstorms 68 20 63 17.2 84 84 NNW 13 20 30.04 1017 9 14.48406 0.06 1.524
7:05 pm 19:05 Cloudy with Light Rain 68 20 63 17.2 84 84 NNE 10 17 30.06 1018 10 16.0934 0.01 0.254
7:51 pm 19:51 Cloudy with Light Rain 68 20 64 17.8 87 87 SE 15 24 30.06 1018 7 11.26538 0.08 2.032
8:51 pm 20:51 Partly Cloudy 67 19.4 64 17.8 91 91 SSW 8 13 30.08 1019 10 16.0934 0 0.0254
9:51 pm 21:51 Clear 68 20 64 17.8 87 87 E 8 13 30.07 1018 10 16.0934 0 0
10:51 pm 22:51 Mostly Cloudy 68 20 61 16.1 78 78 ESE 13 20 30.09 1019 10 16.0934 0 0.0254
11:51 pm 23:51 Mostly Cloudy with Light Rain 67 19.4 59 15 76 76 ESE 10 17 30.09 1019 10 16.0934 0 0.0254

Powered by AerisWeather